Temperature
12 12 12 12 12 12 12 12 12 12 12 12 12 12 12 12 12 12 12 11 11 11 11 11 11 11 11 11 11 11 11 11 11 11 11 11 11 11 11 11 11 11 11
12 12 12 12 12 12 12 12 12 12 12 12 12 11 11 11 11 11 11 11 11 11 11 11 11 10 10 10 10 10 10 10 10 10 10 10 10 10 10 10 10 10 10
11 12 12 12 12 12 12 12 12 12 11 11 11 11 11 11 11 11 11 10 10 10 10 10 10 10 10 10 10 9 9 9 9 10 10 9 10 10 10 10 10 10 10
11 11 11 11 11 11 11 11 11 11 11 11 11 11 10 10 10 10 10 10 10 10 10 10 10 10 9 9 9 9 9 9 9 9 9 9 9 9 9 9 9 9 9
11 11 11 11 11 11 11 11 11 11 11 10 10 10 10 10 10 9 9 9 9 9 9 9 9 9 9 9 9 9 8 8 8 8 8 8 8 8 8 8 8 8 9
10 10 10 10 10 10 10 10 10 10 10 10 10 9 9 9 9 9 9 9 9 9 9 9 8 8 8 8 8 8 8 8 8 8 8 8 8 8 8 8 8 8 8
10 10 10 10 10 10 10 10 10 10 10 9 9 9 9 9 9 9 9 8 8 8 8 8 8 8 8 8 8 8 8 8 7 7 7 7 7 7 7 7 7 7 7
9 10 10 10 10 10 9 9 9 9 9 9 9 8 8 8 8 8 8 8 8 8 8 8 8 8 7 7 7 7 7 7 7 7 7 6 6 6 6 6 6 7 7
9 9 9 9 9 9 9 9 9 9 9 8 8 8 7 7 7 7 8 8 7 7 7 7 7 7 7 7 7 7 7 7 7 6 6 6 6 6 6 6 6 6 6
9 9 9 9 9 9 8 8 8 8 8 8 8 7 7 7 6 6 7 7 7 7 7 7 7 7 6 6 6 6 6 6 6 6 6 6 6 5 5 5 5 5 5
8 8 8 8 8 8 8 8 7 7 7 7 7 7 7 7 6 6 6 6 6 6 6 6 6 6 6 6 6 6 6 5 5 5 5 5 5 5 5 5 5 5 5
7 7 7 7 7 7 7 7 7 7 7 7 7 6 6 6 6 6 5 5 6 6 6 6 6 6 5 5 5 5 5 5 5 5 5 5 5 5 5 5 4 4 4
7 7 7 7 7 7 7 6 6 6 6 6 6 6 6 6 5 5 5 5 5 5 5 5 5 5 5 5 5 5 5 5 4 4 4 4 4 5 5 4 4 4 4
6 6 6 6 6 6 6 6 6 6 6 6 6 6 5 5 5 5 5 4 4 4 5 5 5 5 5 4 4 4 4 4 4 4 4 4 4 4 4 4 4 4 4
6 5 5 6 6 6 6 5 5 5 5 5 5 5 5 5 5 5 4 4 4 3 3 4 4 4 4 4 4 4 4 4 3 3 3 3 3 3 3 3 3 3 3
5 5 5 5 5 5 5 5 5 5 5 5 5 5 5 4 4 4 4 4 3 3 3 3 3 3 3 3 3 3 3 3 3 3 3 3 3 3 3 3 3 3 3
5 5 5 5 5 5 5 5 5 5 4 4 4 4 4 4 4 4 4 3 3 3 2 3 3 3 3 3 3 3 3 3 3 2 2 2 2 2 2 2 2 2 2
4 4 4 4 4 4 4 4 4 4 4 4 4 4 4 4 4 3 3 3 3 2 2 2 3 3 2 2 2 2 2 2 2 2 2 2 1 1 1 2 2 1 1
4 4 4 4 4 4 4 4 4 4 4 4 3 3 3 3 3 3 3 3 2 2 2 1 2 2 2 2 2 2 2 1 1 1 1 1 1 1 1 1 1 1 1
4 4 4 4 4 3 3 3 3 3 3 3 3 3 3 3 3 2 2 2 2 1 1 1 1 1 1 1 1 1 1 1 1 1 1 1 1 1 1 1 1 0 0
3 3 3 3 3 3 3 3 3 3 3 3 3 3 2 2 2 2 2 1 1 1 1 0 0 1 1 0 0 0 -0 0 0 0 0 0 0 0 0 0 0 0 0
3 3 3 3 3 3 3 3 2 2 2 2 2 2 2 2 2 1 1 1 1 0 0 -0 -0 -0 -0 -0 -0 -1 -1 -1 -1 -1 -1 -0 -0 -0 -0 -0 -0 -0 -0
2 2 2 2 2 2 2 2 2 2 2 2 2 2 2 1 1 1 1 0 0 -0 -0 -1 -1 -1 -1 -1 -1 -1 -1 -1 -2 -1 -1 -1 -0 -1 -0 -0 -0 -1 -1
2 2 2 2 2 2 2 2 1 1 1 1 1 1 1 1 1 0 0 0 0 -0 -0 -1 -1 -1 -1 -1 -2 -2 -2 -2 -2 -2 -2 -2 -1 -1 -1 -1 -1 -1 -1
1 1 1 1 1 1 1 1 1 1 1 1 1 1 0 0 0 -0 -0 -0 -0 -0 -1 -1 -1 -1 -2 -2 -2 -2 -2 -3 -3 -2 -2 -3 -2 -2 -1 -1 -1 -2 -2
1 1 1 1 1 1 1 1 1 0 1 1 0 0 0 -0 -0 -1 -1 -1 -1 -1 -1 -1 -1 -1 -2 -2 -2 -2 -3 -3 -3 -3 -3 -3 -3 -3 -3 -2 -2 -2 -2
Wind_Speed
3 3 3 3 4 4 4 4 4 4 4 4 4 4 4 4 4 4 4 6 6 5 5 6 6 6 6 6 6 6 6 5 6 6 6 7 7 7 8 8 9 10 10
4 3 3 2 3 3 3 3 3 3 2 3 3 4 4 4 4 5 5 5 6 6 5 5 6 6 6 5 6 6 6 6 6 6 6 7 8 8 8 9 9 10 10
5 4 3 2 2 3 4 4 4 4 3 3 2 2 3 4 4 4 5 5 5 6 6 6 6 6 6 6 6 6 6 7 7 7 8 8 8 8 8 9 9 10 10
5 4 3 2 2 3 3 2 2 2 2 2 1 1 2 3 3 4 5 5 5 5 6 6 6 6 6 6 6 6 6 7 7 8 8 8 8 8 9 9 10 10 10
4 4 3 2 3 3 2 1 2 1 2 2 2 2 2 2 2 3 4 4 5 5 5 5 6 6 6 6 7 7 7 7 7 8 8 8 9 9 10 10 10 11 11
4 4 3 3 3 3 2 2 2 2 1 1 2 2 2 2 2 2 2 3 4 4 4 4 4 4 5 6 7 7 7 8 8 8 8 9 9 10 10 11 11 12 12
4 4 2 2 3 2 2 2 2 2 2 1 2 2 2 2 2 1 1 2 3 4 4 3 3 3 4 5 6 7 7 8 8 8 8 9 10 10 11 11 12 12 12
3 3 3 2 2 3 3 2 2 1 1 2 2 1 1 2 2 1 0 0 1 2 3 3 2 2 3 4 5 7 8 8 9 9 9 10 10 10 11 12 12 13 13
2 3 3 2 2 2 2 2 2 3 2 1 1 2 2 2 2 2 1 0 1 1 1 2 2 2 3 3 5 6 8 9 9 10 10 10 11 11 12 12 13 13 13
2 3 2 3 2 2 2 2 1 2 3 2 0 1 1 2 1 2 2 2 2 2 2 2 3 3 3 3 5 7 8 9 10 10 11 12 12 12 12 12 13 13 14
2 2 2 2 2 2 2 1 1 2 2 3 2 1 1 0 1 2 3 3 3 2 2 3 2 3 3 4 5 6 8 9 10 11 12 12 12 12 13 13 13 13 14
1 2 2 2 2 2 1 1 1 2 2 2 2 2 2 2 2 2 3 3 4 3 3 2 2 2 3 4 5 7 8 9 10 11 12 12 12 13 13 13 14 13 14
0 1 1 1 1 1 2 2 2 2 2 2 2 2 2 2 2 2 2 3 3 3 2 2 2 2 3 5 6 7 7 9 10 11 12 12 13 13 13 13 14 14 14
1 1 2 2 2 2 2 2 1 1 2 2 2 2 1 2 2 2 2 2 2 3 3 3 2 2 3 5 6 7 7 9 10 11 12 12 12 13 13 13 14 14 14
1 1 2 2 2 2 2 2 1 1 2 2 2 2 2 2 2 2 2 3 3 3 4 3 2 2 4 5 7 6 7 9 10 11 11 12 12 12 13 13 13 14 14
2 2 1 2 2 2 2 2 2 2 2 2 2 2 3 3 2 2 3 2 3 4 4 3 3 3 4 6 8 7 8 9 10 10 11 11 12 13 13 13 13 14 14
3 3 3 2 2 2 3 3 3 3 3 3 2 3 4 3 2 2 2 2 3 3 5 5 3 3 3 4 6 7 8 8 8 10 11 12 12 12 13 13 14 14 14
3 3 3 2 2 3 3 4 4 3 4 4 3 3 4 3 3 3 3 4 4 4 4 7 5 3 4 4 4 5 6 7 7 10 11 12 12 12 13 13 13 13 13
3 3 3 3 3 3 4 4 4 4 4 4 4 5 5 4 4 4 3 4 3 4 3 5 6 4 3 3 3 4 5 4 7 9 10 11 11 13 13 13 13 12 12
3 3 3 4 4 4 4 4 4 4 4 4 5 5 5 6 6 5 4 4 4 4 4 4 5 4 4 3 2 4 5 3 5 6 8 10 12 13 12 12 12 12 12
3 3 3 3 3 4 4 5 5 5 4 4 5 5 6 7 8 6 5 4 4 4 4 4 5 5 4 3 3 3 5 5 4 3 4 5 7 7 9 11 11 12 12
3 3 3 4 4 4 5 7 5 4 4 5 5 5 5 6 7 9 10 9 7 6 5 5 5 6 6 5 4 4 4 4 5 2 3 6 4 5 6 7 11 11 10
2 3 3 4 4 5 7 7 7 4 4 5 5 5 4 5 6 5 8 9 9 10 9 6 6 7 6 5 4 5 4 5 6 4 3 6 4 5 6 8 11 10 9
3 3 4 4 4 5 7 7 7 4 4 5 6 6 5 5 6 5 5 5 6 6 7 6 6 7 6 5 4 4 5 5 5 4 2 4 4 5 6 7 9 8 8
3 3 3 4 4 5 7 7 6 3 4 5 5 5 6 6 8 8 5 5 5 5 8 9 10 9 10 9 6 2 3 4 5 4 2 2 3 4 5 4 6 8 8
4 4 4 4 4 5 7 7 6 3 4 4 4 5 7 7 8 8 5 5 6 6 4 5 6 7 7 8 8 5 4 4 4 4 2 2 2 3 4 3 3 5 6
Wind_Direction
122 103 83 70 66 69 69 63 55 54 55 51 55 61 52 49 50 47 55 58 61 58 55 53 49 46 39 34 28 24 16 11 6 1 356 348 340 332 329 328 319 316 312
132 123 102 77 60 64 72 72 73 65 59 63 56 50 51 50 61 64 65 65 60 57 54 50 47 42 35 28 24 19 18 10 359 351 347 341 337 333 327 324 323 318 315
133 127 118 98 68 72 76 72 63 66 60 66 59 50 53 53 66 74 69 68 65 56 55 50 45 43 38 29 24 21 20 15 8 3 356 351 345 337 332 327 324 322 318
131 126 121 116 89 81 80 89 87 76 60 55 45 30 44 59 68 75 78 70 66 59 53 49 45 42 35 24 18 14 16 12 6 358 353 350 346 341 336 330 326 323 321
130 123 119 110 101 87 76 104 84 101 95 66 53 43 29 45 58 72 75 71 66 64 57 46 42 38 27 16 10 6 4 2 358 353 348 347 348 345 340 334 328 322 319
128 119 111 102 101 95 76 88 102 77 108 108 81 50 28 14 49 67 81 69 64 63 57 48 38 24 16 7 2 359 355 352 347 346 345 345 345 343 340 337 335 331 322
132 125 118 109 108 112 108 108 118 88 63 76 76 41 16 26 34 56 75 73 55 44 47 41 36 25 6 358 356 352 347 343 341 338 337 337 336 335 333 331 332 333 331
132 127 128 126 120 121 111 107 116 113 44 47 95 89 10 348 358 349 16 100 38 30 25 9 8 13 1 352 347 348 343 338 332 330 328 328 329 330 329 328 328 329 329
114 126 135 136 125 129 143 146 151 153 152 36 59 129 147 233 306 319 299 276 289 324 316 331 328 328 329 330 329 331 337 334 328 324 323 323 323 323 323 324 324 324 326
101 113 125 132 129 127 142 163 162 162 157 177 155 66 152 165 178 299 304 292 286 279 277 298 298 296 307 316 320 328 333 330 325 321 320 319 319 318 318 319 320 322 322
82 104 111 117 119 120 127 133 137 152 167 177 178 172 145 126 174 196 268 290 292 258 251 252 259 279 295 305 304 313 322 322 318 316 315 315 315 315 315 315 316 317 319
69 84 99 104 109 115 131 154 156 143 154 166 173 178 177 182 195 194 237 268 280 276 265 241 232 259 283 297 297 310 314 316 313 313 313 313 313 314 314 313 313 312 313
213 170 129 129 132 146 153 152 159 161 160 162 182 203 202 211 202 197 220 257 275 290 284 257 230 256 278 291 289 302 303 308 309 309 310 312 313 312 312 311 311 310 310
216 187 163 161 165 169 162 153 167 183 168 174 189 203 219 241 220 205 202 214 275 288 278 267 265 249 282 288 287 298 298 303 305 306 308 310 312 311 310 309 307 308 308
198 171 166 171 174 175 174 168 182 202 179 192 203 209 223 240 233 222 210 202 209 263 277 262 261 267 294 291 293 295 293 297 303 305 306 309 309 309 308 307 305 305 304
195 183 188 187 195 192 186 184 196 206 191 209 211 216 231 236 236 225 216 214 212 224 260 261 255 277 292 299 297 297 290 298 300 301 302 306 308 308 305 305 304 304 304
198 198 200 193 203 210 205 195 207 205 203 219 226 221 235 236 230 234 224 221 225 222 257 279 266 275 270 279 299 299 295 292 292 298 301 304 304 305 306 304 303 302 302
208 205 201 203 214 216 212 206 213 214 210 220 229 226 236 236 232 236 227 227 232 228 241 275 284 278 269 270 280 287 300 298 293 297 300 301 302 305 305 302 301 299 300
211 210 203 210 220 221 220 219 215 218 218 223 227 227 233 224 236 238 235 234 237 248 241 263 279 280 280 278 284 289 289 292 298 297 299 299 300 303 303 302 299 298 298
211 217 221 222 225 227 224 221 215 222 225 231 234 232 232 227 229 233 237 235 237 245 253 262 275 284 283 276 269 285 298 288 292 300 297 296 296 299 300 300 297 296 296
225 225 226 233 232 230 227 215 214 222 227 238 243 240 238 239 238 239 243 236 229 239 251 263 275 283 283 284 278 278 286 298 289 275 293 292 293 292 294 294 293 292 290
235 230 232 235 240 246 245 245 240 230 233 237 249 252 250 248 252 256 256 252 241 238 243 253 268 271 276 274 274 276 284 302 296 269 295 292 282 284 290 285 287 289 287
243 244 243 239 248 253 255 256 252 243 239 242 244 249 257 252 252 243 255 261 259 257 252 247 256 263 268 263 265 269 265 271 275 275 296 287 285 284 290 291 291 288 289
234 244 250 249 255 261 263 264 264 251 241 244 240 236 241 249 244 239 239 250 252 256 259 252 245 255 259 256 248 256 261 277 278 266 246 273 291 290 299 295 290 290 298
249 249 251 246 254 266 267 269 270 246 248 253 248 237 236 242 255 255 246 251 266 269 274 271 269 269 271 270 264 267 267 276 288 280 228 250 285 300 296 287 289 296 302
251 253 256 249 249 259 265 270 270 242 253 261 258 249 250 250 258 258 240 238 259 268 268 282 280 280 273 267 263 240 234 251 270 274 222 229 273 320 307 284 289 303 304
Height
1520 1521 1522 1523 1524 1525 1526 1526 1527 1527 1528 1528 1529 1529 1530 1530 1531 1531 1531 1532 1532 1532 1532 1532 1532 1531 1531 1530 1530 1529 1529 1528 1528 1527 1527 1526 1525 1525 1524 1524 1523 1523 1523
1518 1519 1520 1521 1522 1523 1524 1524 1525 1525 1526 1526 1527 1527 1528 1528 1529 1529 1529 1530 1530 1530 1530 1530 1530 1529 1529 1528 1528 1527 1527 1526 1525 1525 1524 1523 1522 1522 1521 1520 1520 1519 1519
1516 1517 1518 1519 1520 1521 1522 1522 1523 1523 1523 1524 1525 1525 1526 1526 1527 1527 1527 1528 1528 1528 1528 1528 1527 1527 1526 1526 1526 1525 1524 1524 1523 1522 1521 1520 1519 1519 1518 1517 1516 1515 1515
1514 1515 1516 1517 1518 1519 1519 1520 1520 1521 1521 1521 1522 1523 1524 1524 1525 1525 1525 1525 1526 1526 1526 1525 1525 1525 1524 1524 1524 1523 1522 1521 1520 1520 1519 1518 1517 1516 1515 1514 1513 1512 1511
1512 1513 1514 1515 1516 1516 1517 1518 1518 1519 1519 1519 1520 1520 1521 1522 1522 1523 1523 1523 1523 1523 1523 1523 1523 1522 1522 1522 1521 1521 1520 1519 1518 1517 1516 1515 1514 1513 1512 1511 1510 1509 1507
1510 1511 1511 1512 1513 1514 1514 1515 1516 1516 1516 1517 1517 1518 1518 1519 1520 1520 1521 1521 1521 1521 1521 1520 1520 1520 1519 1519 1518 1518 1517 1516 1515 1514 1513 1512 1511 1510 1509 1508 1506 1505 1504
1507 1508 1509 1510 1511 1511 1512 1513 1513 1513 1514 1514 1515 1515 1515 1516 1517 1518 1518 1518 1518 1518 1518 1518 1517 1517 1516 1516 1515 1515 1514 1513 1512 1512 1510 1509 1508 1507 1506 1504 1503 1502 1500
1504 1506 1507 1508 1508 1509 1509 1510 1511 1510 1511 1512 1513 1513 1513 1515 1514 1515 1515 1515 1516 1516 1515 1515 1514 1514 1513 1513 1512 1511 1511 1510 1509 1508 1507 1506 1505 1503 1502 1501 1499 1498 1497
1502 1503 1504 1505 1506 1506 1507 1508 1508 1509 1508 1509 1510 1511 1512 1511 1512 1512 1512 1512 1513 1512 1512 1512 1511 1510 1510 1509 1508 1508 1507 1506 1505 1504 1503 1502 1501 1499 1498 1497 1495 1494 1493
1500 1501 1502 1503 1503 1504 1504 1505 1506 1506 1506 1507 1508 1508 1509 1509 1509 1509 1509 1509 1509 1509 1508 1508 1507 1507 1506 1505 1505 1504 1503 1502 1501 1500 1499 1498 1497 1495 1494 1492 1491 1490 1488
1497 1498 1499 1500 1500 1501 1502 1503 1503 1503 1503 1504 1504 1505 1506 1506 1506 1506 1504 1504 1505 1504 1504 1504 1504 1503 1502 1501 1500 1500 1499 1498 1497 1496 1495 1494 1492 1491 1489 1488 1486 1485 1483
1495 1495 1496 1497 1497 1498 1499 1500 1500 1501 1501 1501 1501 1502 1502 1502 1502 1502 1501 1500 1499 1499 1500 1500 1499 1499 1498 1497 1496 1495 1495 1494 1493 1491 1490 1489 1487 1486 1484 1483 1481 1480 1479
1492 1492 1493 1494 1494 1495 1496 1497 1497 1498 1498 1498 1498 1498 1498 1499 1499 1499 1498 1497 1496 1495 1495 1495 1495 1495 1494 1493 1492 1491 1490 1489 1488 1487 1486 1484 1483 1481 1479 1478 1476 1475 1473
1489 1489 1490 1491 1491 1492 1493 1494 1494 1494 1494 1494 1494 1494 1495 1495 1495 1495 1495 1494 1492 1490 1490 1490 1490 1490 1490 1489 1488 1486 1486 1485 1483 1482 1481 1479 1477 1476 1474 1473 1471 1470 1468
1487 1487 1487 1488 1489 1489 1490 1490 1490 1490 1490 1490 1490 1491 1491 1491 1491 1491 1491 1491 1491 1487 1485 1485 1485 1485 1485 1484 1483 1482 1481 1480 1479 1477 1476 1474 1473 1471 1469 1467 1466 1464 1463
1484 1484 1484 1484 1485 1486 1486 1487 1487 1487 1487 1487 1487 1487 1487 1487 1487 1487 1487 1487 1487 1485 1483 1481 1481 1480 1480 1480 1479 1477 1476 1475 1474 1472 1471 1469 1468 1466 1464 1463 1461 1459 1458
1481 1481 1481 1481 1482 1482 1483 1483 1483 1483 1483 1483 1483 1483 1483 1483 1483 1483 1483 1482 1482 1481 1479 1477 1476 1476 1475 1474 1473 1473 1471 1470 1468 1467 1466 1464 1463 1461 1459 1457 1456 1454 1452
1478 1478 1478 1478 1478 1479 1479 1480 1480 1480 1480 1480 1480 1479 1479 1479 1479 1478 1478 1477 1477 1476 1475 1473 1471 1471 1470 1469 1468 1467 1466 1465 1463 1462 1460 1459 1457 1456 1454 1452 1450 1448 1447
1474 1474 1474 1474 1475 1475 1475 1475 1475 1475 1475 1475 1475 1475 1475 1474 1474 1474 1473 1472 1472 1471 1471 1469 1466 1466 1465 1464 1463 1462 1461 1459 1458 1457 1455 1454 1452 1450 1448 1446 1444 1443 1441
1470 1470 1470 1470 1471 1471 1471 1471 1471 1471 1470 1470 1470 1470 1470 1469 1469 1469 1468 1467 1467 1466 1466 1464 1462 1461 1460 1459 1458 1456 1454 1454 1452 1451 1450 1448 1447 1445 1443 1441 1439 1437 1436
1467 1467 1466 1466 1466 1466 1466 1466 1466 1466 1466 1465 1465 1465 1465 1464 1464 1464 1463 1463 1462 1461 1460 1459 1457 1456 1455 1454 1453 1451 1449 1448 1447 1446 1444 1443 1441 1439 1437 1435 1433 1431 1430
1462 1462 1462 1462 1462 1462 1462 1461 1461 1461 1461 1460 1460 1459 1459 1459 1459 1459 1458 1458 1457 1456 1455 1454 1453 1451 1450 1449 1448 1447 1445 1443 1441 1441 1439 1437 1436 1433 1431 1429 1428 1426 1425
1458 1458 1458 1457 1457 1457 1457 1457 1456 1456 1455 1455 1454 1454 1454 1454 1453 1453 1453 1452 1452 1451 1451 1450 1448 1446 1445 1444 1443 1442 1440 1439 1437 1436 1434 1431 1431 1428 1426 1424 1423 1421 1420
1453 1453 1453 1453 1453 1452 1452 1452 1451 1451 1450 1450 1449 1449 1448 1448 1448 1447 1447 1446 1446 1445 1445 1444 1443 1442 1441 1439 1438 1437 1436 1434 1432 1431 1430 1426 1424 1423 1421 1420 1418 1417 1416
1449 1449 1448 1448 1448 1448 1448 1447 1447 1446 1445 1444 1444 1444 1443 1443 1443 1442 1442 1441 1440 1439 1439 1438 1437 1436 1435 1434 1433 1432 1430 1429 1426 1425 1425 1422 1419 1417 1416 1414 1413 1412 1411
1444 1444 1444 1444 1443 1443 1443 1442 1442 1441 1440 1439 1439 1438 1438 1438 1437 1437 1436 1435 1434 1433 1433 1432 1431 1430 1430 1429 1428 1427 1426 1424 1422 1420 1419 1418 1416 1414 1411 1409 1409 1408 1407